Location: Igon
(43.1667°N, 0.2333°W)
Time: 13:37:24
(UTC+00:00)

Cosmos 1603 - Pass Details

Date: 29 November 2020
Orbit: 831 x 859 km, 71.0° (Epoch: 22 January)

Event Time Altitude Azimuth Distance (km) Brightness Sun altitude
Exits shadow 05:11:49 32° 237° (WSW) 1,393 4.4 -21.2°
Drops below altitude 10° 05:15:59 10° 192° (SSW) 2,450 6.1 -20.5°
Sets 05:18:37 0° 183° (S) 3,385 6.9 -20.0°
